Time,TemperatureF,DewpointF,PressureIn,WindDirection,WindDirectionDegrees,WindSpeedMPH,WindSpeedGustMPH,Humidity,HourlyPrecipIn,Conditions,Clouds,dailyrainin,SoftwareType,DateUTC
2013-02-26 00:09:00,32.3,30.0,30.25,WNW,290,0.0,-999.0,91,-99.99,,,0.06,weatherlink.com 1.10,2013-02-26 05:09:00,
2013-02-26 00:24:00,32.1,30.0,30.25,WNW,290,0.0,-999.0,92,-99.99,,,0.06,weatherlink.com 1.10,2013-02-26 05:24:00,
2013-02-26 00:39:00,32.0,30.0,30.25,WNW,290,0.0,-999.0,92,-99.99,,,0.06,weatherlink.com 1.10,2013-02-26 05:39:00,
2013-02-26 00:54:00,31.9,30.0,30.25,WNW,290,0.0,-999.0,92,-99.99,,,0.00,weatherlink.com 1.10,2013-02-26 05:54:00,
2013-02-26 01:10:00,31.8,30.0,30.24,WNW,290,0.0,-999.0,92,-99.99,,,0.00,weatherlink.com 1.10,2013-02-26 06:10:00,
2013-02-26 01:25:00,31.8,30.0,30.24,WNW,290,0.0,-999.0,92,-99.99,,,0.00,weatherlink.com 1.10,2013-02-26 06:25:00,
2013-02-26 01:40:00,31.6,30.0,30.24,WNW,290,0.0,-999.0,92,-99.99,,,0.00,weatherlink.com 1.10,2013-02-26 06:40:00,
2013-02-26 01:55:00,31.5,30.0,30.24,WNW,290,0.0,-999.0,92,-99.99,,,0.00,weatherlink.com 1.10,2013-02-26 06:55:00,
2013-02-26 02:10:00,31.5,30.0,30.24,WNW,290,0.0,-999.0,92,-99.99,,,0.00,weatherlink.com 1.10,2013-02-26 07:10:00,
2013-02-26 02:25:00,31.7,30.0,30.26,WNW,290,0.0,-999.0,92,-99.99,,,0.00,weatherlink.com 1.10,2013-02-26 07:25:00,
2013-02-26 02:40:00,31.6,30.0,30.27,WNW,290,0.0,-999.0,93,-99.99,,,0.00,weatherlink.com 1.10,2013-02-26 07:40:00,
2013-02-26 02:55:00,31.5,30.0,30.27,WNW,290,0.0,-999.0,93,-99.99,,,0.00,weatherlink.com 1.10,2013-02-26 07:55:00,
2013-02-26 03:10:00,31.5,30.0,30.28,WNW,290,0.0,-999.0,93,-99.99,,,0.00,weatherlink.com 1.10,2013-02-26 08:10:00,
2013-02-26 03:25:00,31.6,30.0,30.27,WNW,290,0.0,-999.0,92,-99.99,,,0.00,weatherlink.com 1.10,2013-02-26 08:25:00,
2013-02-26 03:40:00,31.7,30.0,30.28,WNW,290,0.0,-999.0,92,-99.99,,,0.00,weatherlink.com 1.10,2013-02-26 08:40:00,
2013-02-26 03:55:00,31.8,30.0,30.28,WNW,290,0.0,-999.0,91,-99.99,,,0.00,weatherlink.com 1.10,2013-02-26 08:55:00,
2013-02-26 04:10:00,31.9,30.0,30.28,WNW,290,0.0,-999.0,91,-99.99,,,0.00,weatherlink.com 1.10,2013-02-26 09:10:00,
2013-02-26 04:25:00,31.8,30.0,30.27,WNW,290,0.0,-999.0,91,-99.99,,,0.00,weatherlink.com 1.10,2013-02-26 09:25:00,
2013-02-26 04:40:00,31.7,30.0,30.28,WNW,290,0.0,-999.0,92,-99.99,,,0.00,weatherlink.com 1.10,2013-02-26 09:40:00,
2013-02-26 04:55:00,31.7,30.0,30.28,WNW,290,0.0,-999.0,92,-99.99,,,0.00,weatherlink.com 1.10,2013-02-26 09:55:00,
2013-02-26 05:10:00,31.7,30.0,30.28,WNW,290,0.0,-999.0,92,-99.99,,,0.00,weatherlink.com 1.10,2013-02-26 10:10:00,
2013-02-26 05:25:00,31.5,30.0,30.29,WNW,290,0.0,-999.0,92,-99.99,,,0.00,weatherlink.com 1.10,2013-02-26 10:25:00,
2013-02-26 05:40:00,31.5,30.0,30.30,WNW,290,0.0,-999.0,92,-99.99,,,0.00,weatherlink.com 1.10,2013-02-26 10:40:00,
2013-02-26 05:55:00,31.4,29.0,30.30,WNW,290,0.0,-999.0,92,-99.99,,,0.00,weatherlink.com 1.10,2013-02-26 10:55:00,
2013-02-26 06:10:00,31.4,29.0,30.30,WNW,290,0.0,-999.0,92,-99.99,,,0.00,weatherlink.com 1.10,2013-02-26 11:10:00,
2013-02-26 06:25:00,31.2,29.0,30.29,WNW,290,0.0,-999.0,92,-99.99,,,0.00,weatherlink.com 1.10,2013-02-26 11:25:00,
2013-02-26 06:40:00,31.2,29.0,30.30,WNW,290,0.0,-999.0,93,-99.99,,,0.00,weatherlink.com 1.10,2013-02-26 11:40:00,
2013-02-26 06:55:00,31.3,30.0,30.30,WNW,290,0.0,-999.0,93,-99.99,,,0.00,weatherlink.com 1.10,2013-02-26 11:55:00,
2013-02-26 07:10:00,31.4,30.0,30.31,WNW,290,0.0,-999.0,93,-99.99,,,0.00,weatherlink.com 1.10,2013-02-26 12:10:00,
2013-02-26 07:25:00,31.5,30.0,30.30,WNW,290,0.0,-999.0,93,-99.99,,,0.00,weatherlink.com 1.10,2013-02-26 12:25:00,
2013-02-26 07:40:00,31.6,30.0,30.31,WNW,290,0.0,-999.0,93,-99.99,,,0.00,weatherlink.com 1.10,2013-02-26 12:40:00,
2013-02-26 07:55:00,32.0,30.0,30.31,WNW,290,0.0,-999.0,93,-99.99,,,0.00,weatherlink.com 1.10,2013-02-26 12:55:00,
2013-02-26 08:11:00,32.3,31.0,30.32,WNW,290,0.0,-999.0,93,-99.99,,,0.00,weatherlink.com 1.10,2013-02-26 13:11:00,
2013-02-26 08:26:00,32.9,31.0,30.32,WNW,290,0.0,-999.0,93,-99.99,,,0.00,weatherlink.com 1.10,2013-02-26 13:26:00,
2013-02-26 08:41:00,33.5,32.0,30.33,WNW,290,0.0,-999.0,93,-99.99,,,0.00,weatherlink.com 1.10,2013-02-26 13:41:00,
2013-02-26 08:55:00,34.0,31.0,30.33,WNW,290,0.0,-999.0,90,-99.99,,,0.00,weatherlink.com 1.10,2013-02-26 13:55:00,
2013-02-26 09:11:00,34.5,31.0,30.32,ENE,59,0.0,-999.0,85,-99.99,,,0.00,weatherlink.com 1.10,2013-02-26 14:11:00,
2013-02-26 09:26:00,35.5,31.0,30.31,ENE,59,2.0,-999.0,83,-99.99,,,0.00,weatherlink.com 1.10,2013-02-26 14:26:00,
2013-02-26 09:41:00,35.9,31.0,30.31,ESE,115,0.0,-999.0,83,-99.99,,,0.00,weatherlink.com 1.10,2013-02-26 14:41:00,
2013-02-26 09:56:00,36.6,32.0,30.32,East,94,0.0,-999.0,83,-99.99,,,0.00,weatherlink.com 1.10,2013-02-26 14:56:00,
2013-02-26 10:11:00,37.2,31.0,30.32,SSE,153,0.0,-999.0,79,-99.99,,,0.00,weatherlink.com 1.10,2013-02-26 15:11:00,
2013-02-26 10:26:00,37.7,31.0,30.32,SE,137,2.0,-999.0,77,-99.99,,,0.00,weatherlink.com 1.10,2013-02-26 15:26:00,
2013-02-26 10:41:00,37.9,31.0,30.32,SE,146,1.0,-999.0,75,-99.99,,,0.00,weatherlink.com 1.10,2013-02-26 15:41:00,
2013-02-26 10:56:00,37.8,29.0,30.31,SE,138,2.0,-999.0,71,-99.99,,,0.00,weatherlink.com 1.10,2013-02-26 15:56:00,
2013-02-26 11:11:00,37.6,29.0,30.32,SW,227,0.0,-999.0,70,-99.99,,,0.00,weatherlink.com 1.10,2013-02-26 16:11:00,
2013-02-26 11:26:00,37.4,29.0,30.33,South,176,0.0,-999.0,71,-99.99,,,0.00,weatherlink.com 1.10,2013-02-26 16:26:00,
2013-02-26 11:41:00,37.3,29.0,30.32,ESE,120,0.0,-999.0,72,-99.99,,,0.00,weatherlink.com 1.10,2013-02-26 16:41:00,
2013-02-26 11:56:00,37.3,31.0,30.31,SE,133,0.0,-999.0,77,-99.99,,,0.00,weatherlink.com 1.10,2013-02-26 16:56:00,
2013-02-26 12:11:00,37.5,31.0,30.31,SSE,157,0.0,-999.0,77,-99.99,,,0.00,weatherlink.com 1.10,2013-02-26 17:11:00,
2013-02-26 12:26:00,37.3,29.0,30.31,NNE,30,0.0,-999.0,73,-99.99,,,0.00,weatherlink.com 1.10,2013-02-26 17:26:00,
2013-02-26 12:41:00,37.7,30.0,30.30,ENE,76,0.0,-999.0,73,-99.99,,,0.00,weatherlink.com 1.10,2013-02-26 17:41:00,
2013-02-26 12:56:00,38.6,30.0,30.30,NNW,331,0.0,-999.0,70,-99.99,,,0.00,weatherlink.com 1.10,2013-02-26 17:56:00,
2013-02-26 13:11:00,38.2,29.0,30.30,SSW,200,0.0,-999.0,70,-99.99,,,0.00,weatherlink.com 1.10,2013-02-26 18:11:00,
2013-02-26 13:26:00,37.9,29.0,30.29,ENE,76,0.0,-999.0,70,-99.99,,,0.00,weatherlink.com 1.10,2013-02-26 18:26:00,
2013-02-26 13:41:00,37.9,29.0,30.28,WSW,242,0.0,-999.0,71,-99.99,,,0.00,weatherlink.com 1.10,2013-02-26 18:41:00,
2013-02-26 13:56:00,37.9,29.0,30.28,East,86,0.0,-999.0,71,-99.99,,,0.00,weatherlink.com 1.10,2013-02-26 18:56:00,
2013-02-26 14:11:00,37.7,29.0,30.27,SE,130,0.0,-999.0,70,-99.99,,,0.00,weatherlink.com 1.10,2013-02-26 19:11:00,
2013-02-26 14:26:00,37.8,29.0,30.27,SE,142,0.0,-999.0,70,-99.99,,,0.00,weatherlink.com 1.10,2013-02-26 19:26:00,
2013-02-26 14:41:00,37.9,29.0,30.26,SE,142,0.0,-999.0,70,-99.99,,,0.00,weatherlink.com 1.10,2013-02-26 19:41:00,
2013-02-26 14:56:00,37.8,29.0,30.26,SE,140,0.0,-999.0,71,-99.99,,,0.00,weatherlink.com 1.10,2013-02-26 19:56:00,
2013-02-26 15:12:00,37.8,29.0,30.25,NE,53,0.0,-999.0,71,-99.99,,,0.00,weatherlink.com 1.10,2013-02-26 20:12:00,
2013-02-26 15:27:00,37.6,29.0,30.26,SE,141,1.0,-999.0,72,-99.99,,,0.00,weatherlink.com 1.10,2013-02-26 20:27:00,
2013-02-26 15:42:00,37.4,29.0,30.26,South,188,0.0,-999.0,73,-99.99,,,0.00,weatherlink.com 1.10,2013-02-26 20:42:00,
2013-02-26 15:57:00,37.3,30.0,30.26,SSE,156,1.0,-999.0,75,-99.99,,,0.00,weatherlink.com 1.10,2013-02-26 20:57:00,
2013-02-26 16:12:00,36.8,30.0,30.25,West,264,1.0,-999.0,77,-99.99,,,0.00,weatherlink.com 1.10,2013-02-26 21:12:00,
2013-02-26 16:27:00,36.6,30.0,30.25,South,171,0.0,-999.0,77,-99.99,,,0.00,weatherlink.com 1.10,2013-02-26 21:27:00,
2013-02-26 16:42:00,36.5,30.0,30.25,WSW,246,0.0,-999.0,77,-99.99,,,0.00,weatherlink.com 1.10,2013-02-26 21:42:00,
2013-02-26 16:57:00,36.4,30.0,30.24,WSW,246,0.0,-999.0,78,-99.99,,,0.00,weatherlink.com 1.10,2013-02-26 21:57:00,
2013-02-26 17:12:00,36.1,30.0,30.23,East,80,0.0,-999.0,78,-99.99,,,0.00,weatherlink.com 1.10,2013-02-26 22:12:00,
2013-02-26 17:27:00,35.8,29.0,30.23,East,80,2.0,-999.0,77,-99.99,,,0.00,weatherlink.com 1.10,2013-02-26 22:27:00,
2013-02-26 17:42:00,35.5,28.0,30.24,SE,133,1.0,-999.0,74,-99.99,,,0.00,weatherlink.com 1.10,2013-02-26 22:42:00,
2013-02-26 17:57:00,35.2,27.0,30.23,ESE,118,1.0,-999.0,72,-99.99,,,0.00,weatherlink.com 1.10,2013-02-26 22:57:00,
2013-02-26 18:12:00,35.1,26.0,30.23,ESE,120,0.0,-999.0,69,-99.99,,,0.00,weatherlink.com 1.10,2013-02-26 23:12:00,
2013-02-26 18:27:00,34.8,26.0,30.22,SE,136,0.0,-999.0,70,-99.99,,,0.00,weatherlink.com 1.10,2013-02-26 23:27:00,
2013-02-26 18:42:00,34.4,26.0,30.22,SE,136,0.0,-999.0,72,-99.99,,,0.00,weatherlink.com 1.10,2013-02-26 23:42:00,
2013-02-26 18:57:00,34.2,26.0,30.22,ESE,113,1.0,-999.0,72,-99.99,,,0.00,weatherlink.com 1.10,2013-02-26 23:57:00,
2013-02-26 19:12:00,34.0,26.0,30.23,ESE,117,2.0,-999.0,72,-99.99,,,0.00,weatherlink.com 1.10,2013-02-27 00:12:00,
2013-02-26 19:27:00,33.9,26.0,30.23,SE,125,0.0,-999.0,73,-99.99,,,0.00,weatherlink.com 1.10,2013-02-27 00:27:00,
2013-02-26 19:42:00,33.5,26.0,30.22,East,86,2.0,-999.0,74,-99.99,,,0.00,weatherlink.com 1.10,2013-02-27 00:42:00,
2013-02-26 19:57:00,33.4,27.0,30.20,East,88,1.0,-999.0,76,-99.99,,,0.00,weatherlink.com 1.10,2013-02-27 00:57:00,
2013-02-26 20:12:00,33.2,27.0,30.20,ESE,111,2.0,-999.0,78,-99.99,,,0.00,weatherlink.com 1.10,2013-02-27 01:12:00,
2013-02-26 20:27:00,33.1,27.0,30.19,East,82,3.0,-999.0,79,-99.99,,,0.00,weatherlink.com 1.10,2013-02-27 01:27:00,
2013-02-26 20:42:00,33.1,27.0,30.19,ENE,73,0.0,-999.0,79,-99.99,,,0.00,weatherlink.com 1.10,2013-02-27 01:42:00,
2013-02-26 20:57:00,32.9,27.0,30.19,ESE,103,1.0,-999.0,80,-99.99,,,0.00,weatherlink.com 1.10,2013-02-27 01:57:00,
2013-02-26 21:12:00,32.9,27.0,30.18,East,101,1.0,-999.0,80,-99.99,,,0.00,weatherlink.com 1.10,2013-02-27 02:12:00,
2013-02-26 21:27:00,33.0,27.0,30.17,ENE,72,0.0,-999.0,80,-99.99,,,0.00,weatherlink.com 1.10,2013-02-27 02:27:00,
2013-02-26 21:42:00,33.0,28.0,30.16,ESE,110,1.0,-999.0,81,-99.99,,,0.00,weatherlink.com 1.10,2013-02-27 02:42:00,
2013-02-26 21:57:00,33.0,28.0,30.16,East,93,1.0,-999.0,81,-99.99,,,0.00,weatherlink.com 1.10,2013-02-27 02:57:00,
2013-02-26 22:12:00,33.0,28.0,30.14,ENE,74,2.0,-999.0,82,-99.99,,,0.00,weatherlink.com 1.10,2013-02-27 03:12:00,
2013-02-26 22:27:00,32.9,28.0,30.13,ENE,75,3.0,-999.0,83,-99.99,,,0.00,weatherlink.com 1.10,2013-02-27 03:27:00,
2013-02-26 22:42:00,32.9,29.0,30.12,NE,54,3.0,-999.0,84,-99.99,,,0.00,weatherlink.com 1.10,2013-02-27 03:42:00,
2013-02-26 22:57:00,32.9,29.0,30.11,ESE,112,1.0,-999.0,85,-99.99,,,0.00,weatherlink.com 1.10,2013-02-27 03:57:00,
2013-02-26 23:12:00,32.9,29.0,30.10,East,90,2.0,-999.0,85,-99.99,,,0.00,weatherlink.com 1.10,2013-02-27 04:12:00,
2013-02-26 23:27:00,33.0,29.0,30.09,ESE,111,2.0,-999.0,86,-99.99,,,0.00,weatherlink.com 1.10,2013-02-27 04:27:00,
2013-02-26 23:42:00,32.9,30.0,30.09,ENE,75,4.0,-999.0,87,-99.99,,,0.00,weatherlink.com 1.10,2013-02-27 04:42:00,
2013-02-26 23:57:00,32.7,30.0,30.09,East,96,2.0,-999.0,88,-99.99,,,0.00,weatherlink.com 1.10,2013-02-27 04:57:00,